KUIPER-00069

Last updated on Sat Aug 16 2025 00:02:05 GMT+0000 (Coordinated Universal Time)

1 64816U 25151A 25227.46035019 .00027067 00000+0 76519-3 0 9997 2 64816 51.8772 141.9801 0004991 244.9913 115.0555 15.36126478 5815

Satellite not in orbit

KUIPER-00069